Tracking 35275 objects as of 8-Sep-2026
HD Live streaming from Space Station
objects crossing your sky now

STARLINK-36906

Track STARLINK-36906 now!
10-day predictions
STARLINK-36906 is classified as:


NORAD ID: 68036
Int'l Code: 2026-040Y
Launch date: March 1, 2026
Source: United States (US)
Launch site: AIR FORCE WESTERN TEST RANGE (AFWTR)
Your satellite tracking list
Your tracking list is empty




NASA's NSSDC Master Catalog

Two Line Element Set (TLE):
1 68036U 26040X   26250.79830319  .00025608  00000-0  79236-3 0  9991
2 68036  97.2854 198.3483 0001940  99.0413 261.1049 15.33463926 29372
Source of the keplerian elements: AFSPC